Location: Arroyo Retuerta
(40.5469°N, 4.3534°W)
Time: 11:10:55
(UTC+00:00)

Abrixas rocket - Pass Details

Date: 01 June 2020
Orbit: 342 x 348 km, 48.4° (Epoch: 05 July)

Event Time Altitude Azimuth Distance (km) Brightness Sun altitude
Rises 22:18:00 0° 299° (WNW) 2,166 6.8 -21.6°
Reaches altitude 10° 22:20:02 10° 298° (WNW) 1,318 5.5 -21.7°
Enters shadow 22:21:48 32° 294° (WNW) 627 3.5 -21.9°
